Content
SEND FEEDBACK

Daily
Averages
Monthly
Summary
Greece

ATHENS, GREECE


Home > Europe > Greece
Elevation: 69 feet     Latitude: 37 54N     Longitude: 023 44E

WEATHER
 
SELECT A DAY
Number of Records: 84,129;   Date Range: 4/14/01 - 12/16/14
 
SHARE

PRINT THIS DATA

[ ← Previous Day ]
WEATHER ALMANAC - MAY 22, 2013
[ Next Day → ]
[ °C ]   °F
Weather ElementAverageHighLow
Temperature75.3 °F86 °F (12:50 pm)62.6 °F (5:50 am)
Dewpoint52.1 °F57.2 °F (9:20 am)46.4 °F (6:20 pm)
Humidity46.2 %68 % (5:50 am)27 % (12:50 pm)
Barometer29.84 in29.92 in (12:50 am)29.77 in (7:20 pm)
Wind Speed5.9 mph15 mph (1:20 pm)
Weather ElementAverage
Visibility6.2 mi
Wind DirectionSSE (154 °)

Weather ElementTotal
Precipitation---
Cooling Degree Days9.3 (Base 65)
Growing Degree Days24.3 (Base 50)
Averaged from 47 records on May 22, 2013
WEATHER CONDITIONS BREAKOUT
WIND DIRECTION BREAKOUT
WEATHER BY HOUR - MAY 22, 2013
[ °C ]   °F
Local TimeTemperatureDewpointHumidityBarometerVisibilityWind DirectionWind SpeedGust SpeedPrecipitationEventsConditions
12:50 AM69.8 °F51.8 °F53 %29.92 inWest (270°)1.2 mphClear
1:20 AM68.0 °F51.8 °F56 %29.92 inSW (220°)2.3 mphClear
1:50 AM71.6 °F51.8 °F50 %29.89 inNW (320°)2.3 mphClear
2:20 AM69.8 °F51.8 °F53 %29.89 inWNW (300°)1.2 mphClear
2:50 AM69.8 °F51.8 °F53 %29.89 inWNW (290°)4.6 mphClear
3:20 AM69.8 °F53.6 °F56 %29.89 inVariable3.5 mphClear
3:50 AM66.2 °F53.6 °F64 %29.86 inWSW (240°)2.3 mphClear
4:20 AM66.2 °F51.8 °F60 %29.86 inWNW (290°)3.5 mphClear
4:50 AM64.4 °F51.8 °F64 %29.86 inESE (110°)3.5 mphClear
5:20 AM64.4 °F51.8 °F64 %29.86 inWest (270°)2.3 mphClear
5:50 AM62.6 °F51.8 °F68 %29.86 inCalmClear
6:20 AM62.6 °F51.8 °F68 %29.86 inWest (280°)4.6 mphClear
6:50 AM64.4 °F53.6 °F68 %29.86 inVariable1.2 mphClear
7:20 AM68.0 °F55.4 °F64 %29.86 inVariable1.2 mphClear
7:50 AM69.8 °F53.6 °F56 %29.86 inVariable2.3 mphClear
8:20 AM69.8 °F53.6 °F56 %29.86 inVariable2.3 mphClear
8:50 AM71.6 °F55.4 °F57 %29.86 inCalmClear
9:20 AM75.2 °F57.2 °F53 %29.86 inSouth (170°)3.5 mphClear
9:50 AM77.0 °F57.2 °F50 %29.86 inVariable2.3 mphClear
10:20 AM78.8 °F57.2 °F47 %29.86 inVariable3.5 mphClear
10:50 AM80.6 °F57.2 °F45 %29.86 inEast (100°)5.8 mphClear
11:20 AM80.6 °F55.4 °F42 %29.86 inESE (120°)6.9 mphClear
11:50 AM84.2 °F50.0 °F30 %29.86 inSouth (190°)11.5 mphClear
12:20 PM84.2 °F51.8 °F33 %29.86 inSouth (190°)10.4 mphClear
12:50 PM86.0 °F48.2 °F27 %29.86 inSouth (190°)12.7 mphClear
1:20 PM86.0 °F50.0 °F29 %29.86 inSouth (190°)15.0 mphClear
1:50 PM82.4 °F50.0 °F32 %29.86 inSSW (200°)15.0 mphClear
2:20 PM82.4 °F48.2 °F30 %29.83 inSSW (200°)12.7 mphClear
2:50 PM82.4 °F48.2 °F30 %29.83 inSSW (210°)13.8 mphClear
3:20 PM82.4 °F48.2 °F30 %29.83 inSSW (210°)13.8 mphClear
3:50 PM82.4 °F50.0 °F32 %29.83 inSSW (210°)12.7 mphClear
4:20 PM82.4 °F48.2 °F30 %29.83 inSSW (210°)10.4 mphClear
4:50 PM84.2 °F48.2 °F29 %29.80 inSSW (210°)8.1 mphClear
5:20 PM84.2 °F50.0 °F30 %29.80 inVariable3.5 mphClear
5:50 PM82.4 °F51.8 °F35 %29.80 inSE (140°)6.9 mphClear
6:20 PM80.6 °F46.4 °F30 %29.80 inSW (220°)10.4 mphClear
6:50 PM78.8 °F48.2 °F34 %29.80 in6.2 miSSW (210°)9.2 mphMostly Cloudy
7:20 PM77.0 °F53.6 °F44 %29.77 in6.2 miSouth (190°)6.9 mphMostly Cloudy
7:50 PM77.0 °F55.4 °F47 %29.80 in6.2 miVariable3.5 mphMostly Cloudy
8:20 PM77.0 °F50.0 °F39 %29.80 in6.2 miVariable2.3 mphMostly Cloudy
8:50 PM75.2 °F51.8 °F44 %29.83 in6.2 miWSW (250°)5.8 mphMostly Cloudy
9:20 PM75.2 °F55.4 °F50 %29.83 in6.2 miSW (230°)5.8 mphLight Drizzle
9:50 PM73.4 °F51.8 °F47 %29.77 in6.2 miSouth (180°)4.6 mphLight Drizzle
10:20 PM73.4 °F55.4 °F53 %29.80 in6.2 miVariable2.3 mphMostly Cloudy
10:50 PM73.4 °F55.4 °F53 %29.77 in6.2 miSE (140°)5.8 mphMostly Cloudy
11:20 PM75.2 °F51.8 °F44 %29.80 in6.2 miWest (280°)3.5 mphMostly Cloudy
11:50 PM75.2 °F50.0 °F41 %29.77 in6.2 miSSW (210°)9.2 mphMostly Cloudy
Hourly data recorded from LGAV, located miles away from Athens, Greece







STORIES FROM OUR PARTNERS